Other Public Products
Issued by NWS Grand Forks, ND

Home | Current Version | Previous Version | Text Only | Print | Product List | Glossary Off
Versions: 1 2 3 4 5 6 7 8 9 10 11 12 13 14 15 16 17 18 19 20 21 22 23 24 25 26 27 28 29 30 31 32 33 34 35 36 37 38 39 40 41 42 43 44 45 46 47 48 49 50

547
FPUS83 KFGF 130410
OPUFGF
PRAIRIE TO PINES WEATHER ROUNDUP
NATIONAL WEATHER SERVICE EASTERN NORTH DAKOTA/GRAND FORKS ND
1000 PM CST TUE DEC 12 2017

 **SATELLITE DATA USED TO AUGMENT SKY COVER AT AUTOMATED STATIONS**
 *****  WEATHER ACROSS EASTERN NORTH DAKOTA  *****

CITY           SKY/WX    TMP DP  RH WIND       PRES   REMARKS
GRAND FORKS    CLOUDY    30  28  92 S7        29.41F WCI  23
GRND FORKS AFB FAIR      38  29  68 CALM      29.41F
GRND FORKS NWS   N/A     30 N/A N/A S5          N/A
BUXTON         NOT AVBL
DEVILS LAKE    CLOUDY    39  27  62 W13       29.44F
FARGO          FAIR      33  28  81 SE8       29.47F
WAHPETON ARPT    N/A     30  25  80 SE7       29.51F WCI  23
$$

 *****  WEATHER ACROSS CENTRAL AND WESTERN NORTH DAKOTA  *****

CITY           SKY/WX    TMP DP  RH WIND       PRES   REMARKS
JAMESTOWN      FAIR      38  28  67 SW12      29.46F
BISMARCK       FAIR      48  19  31 W20G26    29.57F
MINOT          CLOUDY    43  29  57 NW30G40   29.56R
MINOT AFB      FAIR      42  29  60 NW24G35   29.55R
GARRISON         N/A     43  26  51 NW33G44   29.56S
WILLISTON      MOCLDY    47  28  47 NW36G45   29.74R
DICKINSON      FAIR      47  24  40 NW28G38   29.69R
HETTINGER      FAIR      49  17  28 NW35G48   29.75R
$$

 *****  OTHER OBSERVATIONS NORTHEAST NORTH DAKOTA  *****

CITY           SKY/WX    TMP DP  RH WIND       PRES   REMARKS
WALHALLA       FAIR      39  30  70 NW10      29.42F
LANGDON        CLOUDY    37  32  81 NW14      29.43S
CAVALIER       FAIR      28  28 100 CALM      29.41S
GRAFTON        FAIR      30  30 100 SW6       29.45S WCI  24
CANDO          CLOUDY    39  25  56 NW15      29.47R
FORT TOTTEN      N/A     39  26  58 W5        29.95S
ROLLA          CLOUDY    39  27  60 NW20G26   29.44F
RUGBY          CLOUDY    41  27  56 NW23      29.47F
 ***** THE ABOVE OBSERVATIONS ARE NON NWS ARE NOT QUALITY
        CONTROLLED AND MAY MIS-REPORT RAIN FOR SNOW...
$$

 *****  OTHER OBSERVATIONS SOUTHEAST NORTH DAKOTA *****

CITY           SKY/WX    TMP DP  RH WIND       PRES   REMARKS
COOPERSTOWN    CLOUDY    37  30  75 W15       29.43F
VALLEY CITY    MOCLDY    37  30  75 W15       29.46F
OAKES            N/A     30  27  86 S13       29.50F WCI  20
GWINNER          N/A     32  27  80 SW10      29.49F WCI  24
BUFFALO        NOT AVBL
WYNDMERE       NOT AVBL
 ***** THE ABOVE OBSERVATIONS ARE NON NWS ARE NOT QUALITY
       CONTROLLED AND MAY MIS-REPORT RAIN FOR SNOW...
$$

  *****  WEATHER ACROSS NORTHERN MINNESOTA  *****

CITY           SKY/WX    TMP DP  RH WIND       PRES   REMARKS
FLAG ISLAND    LGT SNOW  14  10  85 SE9       29.50F WCI   2
WARROAD        CLOUDY    18  14  86 E9        29.49F WCI   6
ROSEAU         CLOUDY    19  16  86 E9        29.47F WCI   9
HALLOCK        CLOUDY    28  27  93 S8        29.42F WCI  20
THF RVR FALLS  FAIR      28  25  88 S9        29.43F WCI  19
HALSTAD        NOT AVBL
FOSSTON        FAIR      28  25  86 S14       29.46F WCI  17
BAUDETTE       CLOUDY    15  13  91 SE10      29.51F WCI   2
WASKISH        CLOUDY    18  16  93 SE9       29.51F WCI   6
CROOKSTON      FAIR      30  28  93 S13       29.44F WCI  20
$$
  *****  WEATHER ACROSS CENTRAL AND WEST MINNESOTA  *****

CITY           SKY/WX    TMP DP  RH WIND       PRES   REMARKS
BEMIDJI        FAIR      18  15  91 SE7       29.50F WCI   8
PARK RAPIDS    FAIR      20  16  84 SE10      29.51F WCI   9
WADENA         FAIR      23  23 100 S6        29.53F WCI  16
DETROIT LAKES  FAIR      28  27  93 S6        29.51F WCI  22
MOORHEAD       FAIR      30  27  86 CALM      29.49F
FERGUS FALLS   FAIR      30  27  86 S9        29.55F WCI  22
ELBOW LAKE     FAIR      29  26  90 S9        29.54F WCI  20
MORRIS MN      FAIR      28  25  86 S8        29.56F WCI  20
STAPLES        FAIR      19  18  93 SE6       29.55F WCI  11
WHEATON        FAIR      37  27  65 S3        29.55F
$$
  *****  WEATHER ELSEWHERE ACROSS MINNESOTA  *****

CITY           SKY/WX    TMP DP  RH WIND       PRES   REMARKS
DULUTH         FLURRIES  11   9  92 SE10      29.66F WCI  -3
INTRNTL FALLS  CLOUDY    13   9  84 SE10      29.58F WCI   0
ELY            LGT SNOW  12   9  85 SE7       29.65F WCI   2
CLOQUET        FLURRIES  12   9  85 SE6       29.66F WCI   3
BRAINERD       CLOUDY    20  15  81 S8        29.59F WCI  10
HIBBING        CLOUDY    11   9  92 SE10      29.63F WCI  -3
ALEXANDRIA     FAIR      32  27  81 S9        29.55F WCI  24
SAINT CLOUD    MOCLDY    20  17  88 SE6       29.63F WCI  12
MINNEAPOLIS    MOCLDY    25  22  88 SE6       29.69F WCI  18
$$

  *****  WEATHER ACROSS SOUTH DAKOTA  *****

CITY           SKY/WX    TMP DP  RH WIND       PRES   REMARKS
SIOUX FALLS    FAIR      37  26  64 SW8       29.67F
BROOKINGS      FAIR      33  25  72 S9          N/A
WATERTOWN      FAIR      32  26  78 SW10      29.59F WCI  24
HURON          FAIR      38  25  59 SW8       29.63F
SISSETON         N/A     44  27  51 W8        29.51F
ABERDEEN       FAIR      34  27  75 SW10      29.57F
MITCHELL       FAIR      46  24  42 W13       29.68F
PIERRE         FAIR      46  22  38 W17       29.70F
MOBRIDGE       FAIR      49  22  34 NW9       29.58F
RAPID CITY     FAIR      57  12  17 NW25G39   29.86F
$$

  *****  SOME WEATHER IN NEARBY STATES *****

CITY           SKY/WX    TMP DP  RH WIND       PRES   REMARKS
GLASGOW MT     FAIR      46  23  40 NW23G32   29.95R
GREAT FALLS MT FAIR      41   7  24 W13       30.21R
CHEYENNE WY    FAIR      44   8  23 W21G31    30.11F
SCOTTSBLUFF NE FAIR      34  14  43 NW10      30.00S
OMAHA NE       FAIR      31  24  75 SE13      29.84F WCI  21
DES MOINES IA  FAIR      28  20  71 S9        29.88F WCI  19
DAVENPORT IA   MOCLDY    24   6  46 S8        29.97F WCI  15
CHICAGO IL     CLOUDY    21   9  59 W5        29.98S WCI  15
EAU CLAIRE WI  CLOUDY    17  11  77 SE9       29.77F WCI   6
LA CROSSE WI   CLOUDY    24  13  62 S10       29.82F WCI  14
$$

  *****  SOME NATIONAL WEATHER *****

CITY           SKY/WX    TMP DP  RH WIND       PRES   REMARKS
LA GUARDIA NY  FAIR      34  17  50 NW22      29.45R WCI  22
RALEIGH NC     FAIR      32  11  41 NW13G22   29.82R WCI  22
ATLANTA GA     FAIR      38  20  48 NW13      29.98R
NEW ORLEANS LA FAIR      49  41  74 N5        30.19R
OKLAHOMA CITY  FAIR      32  25  75 S9        30.11F WCI  24
ALBUQUERQUE NM FAIR      38   3  23 SE6       30.30F
SALT LAKE CITY FOG       25  23  92 CALM      30.43S VSB 1
LOS ANGELES CA FAIR      63  48  58 CALM      30.04S
BOISE ID       LGT SNOW  23  21  92 CALM      30.53S FOG
SEATTLE WA     FAIR      40  33  76 N9        30.39F
$$

*** WEATHER ACROSS MANITOBA...SASKATCHEWAN AND ONTARIO ***
                ***ONTARIO***

CITY           SKY/WX    TMP DP  RH WIND       PRES   REMARKS
GERALDTON      FLURRIES -13 -17  84 E3        29.83F
THUNDER BAY    MOCLDY     3   0  85 N2        29.84F
SIOUX LOOKOUT  FLURRIES   3  -2  78 SE5       29.65F WCI  -6
TORONTO        MOCLDY    12   1  62 NW15G24   29.62S WCI  -4
BIG TROUT LK   CLEAR    -20 -26  76 SE3       29.82S
PICKLE LAKE    NOT AVBL
DRYDEN         FLURRIES   7   3  85 SE9       29.60F WCI  -7
KENORA         FLURRIES  10   7  85 SE10      29.52F WCI  -3
$$
                *** MANITOBA***

CITY           SKY/WX    TMP DP  RH WIND       PRES   REMARKS
BRANDON        CLOUDY    36  30  80 NW9       29.50R
DAUPHIN        CLEAR     21  19  93 E2        29.54R
ISLAND LAKE    FLURRIES   3   0  85 E10       29.68F WCI -12
PILOT MOUND      N/A     36  30  80 NW12G17     N/A
THE PAS        MOCLDY    25  23  93 NW10      29.59R WCI  15
THOMPSON       LGT SNOW   7   1  78 NE5       29.68R WCI  -2
WINNIPEG       CLOUDY    21  19  93 NE5       29.47S WCI  15
LYNN LAKE      FLURRIES   7   5  92 N5        29.67R WCI  -2
CHURCHILL      CRYSTALS -18 -24  76 W5        29.92R WCI -31
$$
                ***SASKATCHEWAN***

CITY           SKY/WX    TMP DP  RH WIND       PRES   REMARKS
ESTEVAN        MOCLDY    37  30  75 NW25G37   29.66S
KINDERSLEY     CLEAR     36  28  75 NW17G24   29.97R
LLOYDMINSTER   PTCLDY    34  28  80 NW14      29.97R WCI  24
PRINCE ALBERT  MOCLDY    36  28  75 NW13G18   29.79R
REGINA         MOCLDY    36  30  80 NW16G23   29.74S
YORKTON        PTCLDY    36  30  80 NW21G28   29.61R
N. BATTLEFORD  CLEAR     36  28  75 NW18G25   29.92R
LA RONGE       CLOUDY    32  28  86 NW17G25   29.77R W



USA.gov is the U.S. government's official web portal to all federal, state and local government web resources and services.